CDT,Max TemperatureF,Mean TemperatureF,Min TemperatureF,Max Dew PointF,MeanDew PointF,Min DewpointF,Max Humidity, Mean Humidity, Min Humidity, Max Sea Level PressureIn, Mean Sea Level PressureIn, Min Sea Level PressureIn, Max VisibilityMiles, Mean VisibilityMiles, Min VisibilityMiles, Max Wind SpeedMPH, Mean Wind SpeedMPH, Max Gust SpeedMPH,PrecipitationIn, CloudCover, Events, WindDirDegrees
2013-10-1,84,71,58,62,58,57,97,69,40,29.96,29.89,29.83,10,10,10,18,7,23,0.00,0,,210
2013-10-2,85,72,58,63,59,54,93,68,43,30.03,29.96,29.89,10,10,5,15,8,20,0.00,1,,135
2013-10-3,80,73,65,68,65,62,93,76,58,29.90,29.84,29.76,10,8,2,24,8,30,0.54,4,Rain-Thunderstorm,178
2013-10-4,82,75,67,70,67,64,97,80,62,29.89,29.84,29.77,10,8,0,18,10,25,0.80,5,Fog-Rain-Thunderstorm,154
2013-10-5,76,59,42,66,48,36,82,64,46,29.90,29.85,29.78,10,10,10,23,10,33,T,4,Rain,244
2013-10-6,50,46,41,47,41,36,93,82,71,29.88,29.80,29.76,10,10,5,17,8,23,0.13,7,Rain,257
2013-10-7,73,58,42,47,45,41,96,66,35,30.07,29.99,29.88,10,10,9,17,9,22,0.00,2,,261
2013-10-8,78,64,49,48,44,40,80,53,26,30.12,30.08,30.03,10,10,10,21,10,26,0.00,0,,182
2013-10-9,74,62,49,50,45,41,86,61,35,30.15,30.10,30.06,10,10,10,15,8,20,0.00,0,,153
2013-10-10,77,61,44,54,48,42,92,64,36,30.11,30.03,29.94,10,10,9,15,7,20,0.00,0,,149
2013-10-11,78,67,55,59,56,52,93,71,48,29.94,29.87,29.79,10,10,5,24,12,33,0.00,2,,161
2013-10-12,68,56,43,61,46,35,97,66,34,30.25,30.03,29.83,10,9,2,18,10,24,0.14,2,Rain,290
2013-10-13,66,50,34,38,33,29,85,56,26,30.44,30.37,30.27,10,10,10,13,5,17,0.00,0,,360
2013-10-14,66,52,37,44,37,31,82,60,37,30.37,30.19,29.94,10,10,10,23,12,30,T,1,Rain,123
2013-10-15,61,55,48,58,48,39,86,69,51,29.95,29.87,29.80,10,9,2,28,14,35,0.13,6,Rain,234
2013-10-16,51,48,44,43,42,40,82,77,71,30.01,29.98,29.94,10,10,10,20,9,26,0.00,8,,274
2013-10-17,64,53,41,42,38,32,92,62,32,29.97,29.90,29.84,10,10,10,17,8,24,0.00,0,,245
2013-10-18,49,44,39,43,35,31,89,71,53,30.06,30.00,29.92,10,10,10,20,10,25,0.00,4,,284
2013-10-19,58,47,36,34,32,30,89,63,36,29.98,29.89,29.81,10,10,10,22,9,29,0.00,4,,243
2013-10-20,62,48,33,43,38,30,83,65,46,29.89,29.80,29.74,10,10,10,20,8,25,T,4,,228
2013-10-21,50,41,31,39,29,23,85,61,36,30.08,30.01,29.91,10,9,5,22,9,30,0.00,3,,302
2013-10-22,44,39,33,39,35,30,96,83,70,30.06,29.95,29.86,10,9,4,17,8,21,0.07,8,Rain,24
2013-10-23,44,37,30,36,31,25,92,69,45,30.15,30.10,30.06,10,10,9,15,8,18,T,6,Rain,287
2013-10-24,43,36,28,29,25,22,85,65,45,30.40,30.29,30.15,10,10,10,22,10,25,0.00,4,,301
2013-10-25,55,40,25,29,24,22,85,58,30,30.45,30.31,30.08,10,10,10,21,10,28,0.00,0,,227
2013-10-26,53,41,29,34,27,24,78,57,35,30.17,30.08,29.96,10,10,10,28,13,36,0.00,0,,291
2013-10-27,61,42,23,31,26,22,92,60,27,30.14,30.03,29.93,10,10,10,17,8,21,0.00,0,,211
2013-10-28,60,46,31,37,31,25,78,57,36,30.27,30.17,30.01,10,10,10,20,8,25,0.00,0,,67
2013-10-29,59,50,40,51,43,36,89,75,61,30.27,30.12,30.04,10,9,3,18,11,24,T,6,Rain,110
2013-10-30,63,58,52,61,56,51,100,97,93,30.03,29.87,29.67,10,3,0,24,10,33,2.28,8,Fog-Rain-Thunderstorm,116
2013-10-31,63,52,41,61,49,40,100,96,92,29.65,29.56,29.45,10,6,2,17,9,22,0.29,8,Rain,271